This is the latest recevied weather packets stored in our database for station/object DG8SBT-13. If no packets are shown the sender has not sent any weather packets the latest 10 day(s).
| Time | Temp. | Humidity | Pressure | Rain* | Wind** | Luminosity | Snow |
|---|---|---|---|---|---|---|---|
| 1777692360 | 19.44° C | 30% | 1023.9 hPa | - | - | - | - |
| 1777690568 | 20° C | 30% | 1024 hPa | - | - | - | - |
| 1777688779 | 20° C | 31% | 1024.4 hPa | - | - | - | - |
| 1777685198 | 20.56° C | 30% | 1024.7 hPa | - | - | - | - |
| 1777683409 | 20.56° C | 28% | 1024.8 hPa | - | - | - | - |
| 1777681618 | 20.56° C | 27% | 1025.1 hPa | - | - | - | - |
| 1777679829 | 21.11° C | 28% | 1025.2 hPa | - | - | - | - |
| 1777678038 | 21.11° C | 27% | 1025.3 hPa | - | - | - | - |
| 1777676249 | 21.11° C | 26% | 1025.2 hPa | - | - | - | - |
| 1777674460 | 21.67° C | 26% | 1025.3 hPa | - | - | - | - |
| 1777672671 | 22.22° C | 25% | 1025.1 hPa | - | - | - | - |
| 1777670881 | 22.78° C | 25% | 1025 hPa | - | - | - | - |
| 1777669091 | 23.33° C | 24% | 1024.8 hPa | - | - | - | - |
| 1777667301 | 23.33° C | 23% | 1024.9 hPa | - | - | - | - |
| 1777665510 | 23.89° C | 24% | 1024.7 hPa | - | - | - | - |
| 1777663719 | 24.44° C | 25% | 1024.5 hPa | - | - | - | - |
| 1777661930 | 25.56° C | 24% | 1024.4 hPa | - | - | - | - |
| 1777660141 | 25.56° C | 23% | 1024.3 hPa | - | - | - | - |
| 1777658353 | 26.11° C | 23% | 1024.2 hPa | - | - | - | - |
| 1777656565 | 26.67° C | 23% | 1023.9 hPa | - | - | - | - |
| 1777654774 | 26.67° C | 22% | 1023.9 hPa | - | - | - | - |
| 1777652985 | 27.22° C | 21% | 1024.2 hPa | - | - | - | - |
| 1777651196 | 27.22° C | 21% | 1024.4 hPa | - | - | - | - |
| 1777649402 | 26.67° C | 22% | 1024.5 hPa | - | - | - | - |
| 1777647611 | 26.11° C | 22% | 1024.9 hPa | - | - | - | - |
* Rain since midnight (hover to see other rain measurements)
** Current wind speed in m/s (hover to see current wind gust speed)